This is the latest recevied weather packets stored in our database for station/object KC5CAM-13. If no packets are shown the sender has not sent any weather packets the latest 10 day(s).
| Time | Temp. | Humidity | Pressure | Rain* | Wind** | Luminosity | Snow |
|---|---|---|---|---|---|---|---|
| 1777243329 | 28.33° C | 75% | 1005.4 hPa | 0 mm | - | 255 W/m² | - |
| 1777243023 | 28.33° C | 75% | 1005.5 hPa | 0 mm | - | 241 W/m² | - |
| 1777242721 | 28.33° C | 74% | 1005.4 hPa | 0 mm | - | 218 W/m² | - |
| 1777242416 | 28.33° C | 74% | 1006 hPa | 0 mm | - | 294 W/m² | - |
| 1777242114 | 28.89° C | 74% | 1005.9 hPa | 0 mm | - | 341 W/m² | - |
| 1777241811 | 28.89° C | 74% | 1005.8 hPa | 0 mm | - | 363 W/m² | - |
| 1777241508 | 28.89° C | 73% | 1006.1 hPa | 0 mm | - | 365 W/m² | - |
| 1777241206 | 28.89° C | 73% | 1006.2 hPa | 0 mm | - | 402 W/m² | - |
| 1777240903 | 28.89° C | 74% | 1006 hPa | 0 mm | - | 402 W/m² | - |
| 1777240601 | 28.89° C | 73% | 1006.3 hPa | 0 mm | - | 422 W/m² | - |
| 1777240298 | 27.78° C | 76% | 1006.2 hPa | 0 mm | - | 452 W/m² | - |
| 1777239995 | 27.78° C | 76% | 1006.2 hPa | 0 mm | - | 203 W/m² | - |
| 1777239693 | 27.78° C | 76% | 1006.2 hPa | 0 mm | - | 140 W/m² | - |
| 1777239389 | 28.33° C | 76% | 1006.1 hPa | 0 mm | - | 150 W/m² | - |
| 1777239086 | 28.89° C | 74% | 1006.2 hPa | 0 mm | - | 223 W/m² | - |
| 1777238784 | 28.33° C | 75% | 1006.4 hPa | 0 mm | - | 511 W/m² | - |
| 1777238480 | 28.33° C | 74% | 1006.3 hPa | 0 mm | - | 432 W/m² | - |
| 1777238177 | 28.89° C | 74% | 1006.4 hPa | 0 mm | - | 166 W/m² | - |
| 1777237874 | 29.44° C | 75% | 1006.4 hPa | 0 mm | - | 463 W/m² | - |
| 1777237570 | 28.89° C | 76% | 1006.7 hPa | 0 mm | - | 557 W/m² | - |
| 1777237268 | 28.33° C | 75% | 1006.6 hPa | 0 mm | - | 233 W/m² | - |
| 1777236965 | 28.33° C | 75% | 1007.1 hPa | 0 mm | - | 222 W/m² | - |
| 1777236662 | 28.33° C | 75% | 1007 hPa | 0 mm | - | 606 W/m² | - |
| 1777236356 | 28.33° C | 74% | 1007.3 hPa | 0 mm | - | 282 W/m² | - |
| 1777236052 | 28.89° C | 73% | 1007.1 hPa | 0 mm | - | 212 W/m² | - |
* Rain latest hour (hover to see other rain measurements)
** Current wind speed in m/s (hover to see current wind gust speed)